Regional Weather Roundup
Issued by NWS Albany, NY

Home | Current Version | Previous Version | Graphics & Text | Print | Product List | Glossary Off
Versions: 1 2 3 4 5 6 7 8 9 10 11 12 13 14 15 16 17 18 19 20 21 22 23 24 25 26 27 28 29 30 31 32 33 34 35 36 37 38 39 40 41 42 43 44 45 46 47 48 49 50

000
ASUS41 KALY 010910
RWRALY

NEW YORK STATE HOURLY WEATHER ROUNDUP
NATIONAL WEATHER SERVICE ALBANY NY
400 AM EST SUN MAR 01 2015

NOTE: "FAIR" INDICATES FEW OR NO CLOUDS BELOW 12,000 FEET WITH NO
SIGNIFICANT WEATHER AND/OR NO OBSTRUCTIONS TO VISIBILITY.

NYZ032-033-038>043-046>054-057>066-NYZ062>081-011000-
EAST


CITY           SKY/WX    TMP DP  RH WIND       PRES   REMARKS
ALBANY         MOCLDY     5  -3  69 CALM      30.67F
GLENS FALLS    PTCLDY    -7 -13  75 CALM      30.66F
POUGHKEEPSIE   PTCLDY     4  -2  76 CALM      30.68F
NEWBURGH       CLEAR      7   1  78 VRB3      30.65
MONTGOMERY     PTCLDY     2  -4  76 CALM      30.64F
WHITE PLAINS   PTCLDY    12   3  67 NW3       30.64F
ISLIP          CLEAR     15   5  64 CALM      30.67F
NEW YORK CITY  PTCLDY    24   4  42 CALM      30.68F
CENTRAL PARK   CLEAR     25  -1  32 CALM      30.69F
$$

NYZ005>009-017-018-044>046-055-056-011000-
CENTRAL


CITY           SKY/WX    TMP DP  RH WIND       PRES   REMARKS
FULTON         MOCLDY    10  -2  58 SE6       30.57F WCI   0
SYRACUSE       CLOUDY     1  -3  84 E6        30.58F WCI -10
ROME           MOCLDY     1  -5  75 SE5       30.62F WCI  -9
ELMIRA         CLOUDY     8   1  73 CALM      30.56F
BINGHAMTON     CLOUDY    12  -2  53 S5        30.50F WCI   4
$$

NYZ026>034-041>043-011000-
NORTH


CITY           SKY/WX    TMP DP  RH WIND       PRES   REMARKS
WATERTOWN      MOCLDY     3  -3  76 E7        30.57F WCI  -9
FORT DRUM      NOT AVBL
MASSENA        PTCLDY    -5 -11  75 CALM      30.61F
SARANAC LAKE   PTCLDY   -19 -24  77 CALM      30.48F
PLATTSBURGH    CLEAR     -6  -9  86 CALM      30.64F
$$

NYZ001>004-010>016-019>021-011000-
WEST


CITY           SKY/WX    TMP DP  RH WIND       PRES   REMARKS
NIAGARA FALLS  CLOUDY     9   1  70 CALM      30.49F
BUFFALO        CLOUDY    13   3  64 S3        30.49F
DUNKIRK        LGT SNOW  19  15  84 S7        30.49F FOG     WCI  10
JAMESTOWN      CLOUDY    14  12  92 S6        30.40F WCI   5
WELLSVILLE     LGT SNOW  16   8  71 S6        30.42F WCI   7
ROCHESTER      CLOUDY     8   0  69 CALM      30.52F
PENN YAN       CLOUDY     8   2  76 CALM      30.52F
$$

             KEY
       WCI = WIND CHILL INDEX
       VSB = VISIBILITY
       HX  = HEAT INDEX
$$


USA.gov is the U.S. government's official web portal to all federal, state and local government web resources and services.